{"data":{"norad_id":81111,"intl_designator":"","name":"UNKNOWN","alt_names":[],"object_type":"UNKNOWN","status":"UNKNOWN","operator":null,"country":null,"launch_date":null,"launch_site_code":null,"launch_vehicle":null,"mission":null,"orbit_class":"UNKNOWN","rcs_meters":null,"size_class":null,"mass_kg":null,"dimensions":null,"purposes":[],"wikipedia_slug":null,"has_3d_model":false,"image_url":null,"decayed_at":null,"tle_current":{"epoch":"2026-05-23T07:28:21.563616Z","epoch_age_seconds":227746,"freshness":"STALE","line1":"1 81111U          26143.31136069  .00008632  00000+0  15858-2 0  9994","line2":"2 81111  62.8628 226.5694 3845732   3.7040 358.5139  7.60022056284192","mean_motion":7.60022056,"eccentricity":0.3845732,"inclination_deg":62.8628,"raan_deg":226.5694,"arg_perigee_deg":3.704,"mean_anomaly_deg":358.5139,"bstar":0.0015858,"rev_number":28419,"period_min":189.46818564434,"perigee_km":346.89128597879,"apogee_km":8751.6784939112,"semimajor_km":10927.421889945,"source":"CELESTRAK","updated_at":"2026-05-25T13:38:09.445483Z"}}}